Year,Month,Day,Hour,Minute,Value (Times are PST for temperature in C)
2017,06,25,00,00,17.60
2017,06,25,00,01,17.60
2017,06,25,00,02,17.60
2017,06,25,00,03,17.60
2017,06,25,00,04,17.50
2017,06,25,00,05,17.50
2017,06,25,00,06,17.50
2017,06,25,00,07,17.50
2017,06,25,00,08,17.50
2017,06,25,00,09,17.50
2017,06,25,00,10,17.50
2017,06,25,00,11,17.50
2017,06,25,00,12,17.60
2017,06,25,00,13,17.60
2017,06,25,00,14,17.60
2017,06,25,00,15,17.50
2017,06,25,00,16,17.50
2017,06,25,00,17,17.50
2017,06,25,00,18,17.40
2017,06,25,00,19,17.40
2017,06,25,00,20,17.40
2017,06,25,00,21,17.40
2017,06,25,00,22,17.40
2017,06,25,00,23,17.30
2017,06,25,00,24,17.30
2017,06,25,00,25,17.30
2017,06,25,00,26,17.30
2017,06,25,00,27,17.30
2017,06,25,00,28,17.30
2017,06,25,00,29,17.20
2017,06,25,00,30,17.20
2017,06,25,00,31,17.20
2017,06,25,00,32,17.30
2017,06,25,00,33,17.30
2017,06,25,00,34,17.30
2017,06,25,00,35,17.30
2017,06,25,00,36,17.40
2017,06,25,00,37,17.40
2017,06,25,00,38,17.40
2017,06,25,00,39,17.40
2017,06,25,00,40,17.40
2017,06,25,00,41,17.30
2017,06,25,00,42,17.30
2017,06,25,00,43,17.30
2017,06,25,00,44,17.20
2017,06,25,00,45,17.20
2017,06,25,00,46,17.10
2017,06,25,00,47,17.10
2017,06,25,00,48,17.10
2017,06,25,00,49,17.00
2017,06,25,00,50,17.00
2017,06,25,00,51,16.90
2017,06,25,00,52,16.90
2017,06,25,00,53,16.90
2017,06,25,00,54,16.90
2017,06,25,00,55,16.80
2017,06,25,00,56,16.80
2017,06,25,00,57,16.90
2017,06,25,00,58,16.90
2017,06,25,00,59,17.00
2017,06,25,01,00,17.00
2017,06,25,01,01,17.10
2017,06,25,01,02,17.20
2017,06,25,01,03,17.30
2017,06,25,01,04,17.30
2017,06,25,01,05,17.30
2017,06,25,01,06,17.40
2017,06,25,01,07,17.40
2017,06,25,01,08,17.40
2017,06,25,01,09,17.40
2017,06,25,01,10,17.40
2017,06,25,01,11,17.40
2017,06,25,01,12,17.30
2017,06,25,01,13,17.30
2017,06,25,01,14,17.30
2017,06,25,01,15,17.20
2017,06,25,01,16,17.20
2017,06,25,01,17,17.20
2017,06,25,01,18,17.10
2017,06,25,01,19,17.10
2017,06,25,01,20,17.10
2017,06,25,01,21,17.10
2017,06,25,01,22,17.10
2017,06,25,01,23,17.10
2017,06,25,01,24,17.20
2017,06,25,01,25,17.10
2017,06,25,01,26,17.10
2017,06,25,01,27,17.10
2017,06,25,01,28,17.00
2017,06,25,01,29,17.00
2017,06,25,01,30,16.90
2017,06,25,01,31,17.00
2017,06,25,01,32,17.00
2017,06,25,01,33,17.10
2017,06,25,01,34,17.10
2017,06,25,01,35,17.10
2017,06,25,01,36,17.10
2017,06,25,01,37,17.00
2017,06,25,01,38,17.00
2017,06,25,01,39,16.90
2017,06,25,01,40,16.90
2017,06,25,01,41,16.90
2017,06,25,01,42,16.90
2017,06,25,01,43,16.90
2017,06,25,01,44,16.90
2017,06,25,01,45,16.80
2017,06,25,01,46,16.80
2017,06,25,01,47,16.70
2017,06,25,01,48,16.80
2017,06,25,01,49,16.90
2017,06,25,01,50,17.00
2017,06,25,01,51,17.10
2017,06,25,01,52,17.10
2017,06,25,01,53,17.10
2017,06,25,01,54,17.00
2017,06,25,01,55,17.00
2017,06,25,01,56,16.90
2017,06,25,01,57,16.80
2017,06,25,01,58,16.80
2017,06,25,01,59,16.80
2017,06,25,02,00,16.70
2017,06,25,02,01,16.70
2017,06,25,02,02,16.60
2017,06,25,02,03,16.60
2017,06,25,02,04,16.50
2017,06,25,02,05,16.50
2017,06,25,02,06,16.50
2017,06,25,02,07,16.40
2017,06,25,02,08,16.40
2017,06,25,02,09,16.40
2017,06,25,02,10,16.40
2017,06,25,02,11,16.40
2017,06,25,02,12,16.30
2017,06,25,02,13,16.30
2017,06,25,02,14,16.30
2017,06,25,02,15,16.20
2017,06,25,02,16,16.20
2017,06,25,02,17,16.20
2017,06,25,02,18,16.20
2017,06,25,02,19,16.10
2017,06,25,02,20,16.10
2017,06,25,02,21,16.00
2017,06,25,02,22,16.00
2017,06,25,02,23,15.90
2017,06,25,02,24,15.90
2017,06,25,02,25,15.90
2017,06,25,02,26,15.90
2017,06,25,02,27,15.90
2017,06,25,02,28,15.90
2017,06,25,02,29,16.00
2017,06,25,02,30,16.00
2017,06,25,02,31,16.00
2017,06,25,02,32,16.00
2017,06,25,02,33,16.00
2017,06,25,02,34,16.00
2017,06,25,02,35,15.90
2017,06,25,02,36,15.90
2017,06,25,02,37,15.90
2017,06,25,02,38,15.90
2017,06,25,02,39,15.90
2017,06,25,02,40,15.90
2017,06,25,02,41,15.90
2017,06,25,02,42,15.90
2017,06,25,02,43,15.80
2017,06,25,02,44,15.80
2017,06,25,02,45,15.80
2017,06,25,02,46,15.70
2017,06,25,02,47,15.70
2017,06,25,02,48,15.70
2017,06,25,02,49,15.70
2017,06,25,02,50,15.70
2017,06,25,02,51,15.60
2017,06,25,02,52,15.60
2017,06,25,02,53,15.60
2017,06,25,02,54,15.60
2017,06,25,02,55,15.60
2017,06,25,02,56,15.60
2017,06,25,02,57,15.60
2017,06,25,02,58,15.60
2017,06,25,02,59,15.60
2017,06,25,03,00,15.60
2017,06,25,03,01,15.70
2017,06,25,03,02,15.70
2017,06,25,03,03,15.70
2017,06,25,03,04,15.70
2017,06,25,03,05,15.70
2017,06,25,03,06,15.70
2017,06,25,03,07,15.70
2017,06,25,03,08,15.70
2017,06,25,03,09,15.70
2017,06,25,03,10,15.70
2017,06,25,03,11,15.70
2017,06,25,03,12,15.70
2017,06,25,03,13,15.70
2017,06,25,03,14,15.70
2017,06,25,03,15,15.70
2017,06,25,03,16,15.70
2017,06,25,03,17,15.70
2017,06,25,03,18,15.70
2017,06,25,03,19,15.70
2017,06,25,03,20,15.70
2017,06,25,03,21,15.70
2017,06,25,03,22,15.70
2017,06,25,03,23,15.70
2017,06,25,03,24,15.70
2017,06,25,03,25,15.70
2017,06,25,03,26,15.60
2017,06,25,03,27,15.60
2017,06,25,03,28,15.60
2017,06,25,03,29,15.60
2017,06,25,03,30,15.60
2017,06,25,03,31,15.60
2017,06,25,03,32,15.70
2017,06,25,03,33,15.70
2017,06,25,03,34,15.70
2017,06,25,03,35,15.70
2017,06,25,03,36,15.70
2017,06,25,03,37,15.80
2017,06,25,03,38,15.80
2017,06,25,03,39,15.80
2017,06,25,03,40,15.80
2017,06,25,03,41,15.80
2017,06,25,03,42,15.80
2017,06,25,03,43,15.80
2017,06,25,03,44,15.80
2017,06,25,03,45,15.80
2017,06,25,03,46,15.70
2017,06,25,03,47,15.70
2017,06,25,03,48,15.70
2017,06,25,03,49,15.70
2017,06,25,03,50,15.70
2017,06,25,03,51,15.70
2017,06,25,03,52,15.70
2017,06,25,03,53,15.60
2017,06,25,03,54,15.70
2017,06,25,03,55,15.70
2017,06,25,03,56,15.70
2017,06,25,03,57,15.70
2017,06,25,03,58,15.70
2017,06,25,03,59,15.70
2017,06,25,04,00,15.70
2017,06,25,04,01,15.70
2017,06,25,04,02,15.70
2017,06,25,04,03,15.70
2017,06,25,04,04,15.80
2017,06,25,04,05,15.80
2017,06,25,04,06,15.80
2017,06,25,04,07,15.80
2017,06,25,04,08,15.80
2017,06,25,04,09,15.80
2017,06,25,04,10,15.80
2017,06,25,04,11,15.70
2017,06,25,04,12,15.70
2017,06,25,04,13,15.70
2017,06,25,04,14,15.70
2017,06,25,04,15,15.70
2017,06,25,04,16,15.70
2017,06,25,04,17,15.70
2017,06,25,04,18,15.60
2017,06,25,04,19,15.60
2017,06,25,04,20,15.60
2017,06,25,04,21,15.60
2017,06,25,04,22,15.50
2017,06,25,04,23,15.50
2017,06,25,04,24,15.50
2017,06,25,04,25,15.40
2017,06,25,04,26,15.40
2017,06,25,04,27,15.40
2017,06,25,04,28,15.40
2017,06,25,04,29,15.40
2017,06,25,04,30,15.40
2017,06,25,04,31,15.40
2017,06,25,04,32,15.30
2017,06,25,04,33,15.30
2017,06,25,04,34,15.30
2017,06,25,04,35,15.30
2017,06,25,04,36,15.30
2017,06,25,04,37,15.30
2017,06,25,04,38,15.30
2017,06,25,04,39,15.30
2017,06,25,04,40,15.30
2017,06,25,04,41,15.30
2017,06,25,04,42,15.30
2017,06,25,04,43,15.30
2017,06,25,04,44,15.30
2017,06,25,04,45,15.20
2017,06,25,04,46,15.20
2017,06,25,04,47,15.20
2017,06,25,04,48,15.20
2017,06,25,04,49,15.20
2017,06,25,04,50,15.20
2017,06,25,04,51,15.20
2017,06,25,04,52,15.20
2017,06,25,04,53,15.20
2017,06,25,04,54,15.20
2017,06,25,04,55,15.20
2017,06,25,04,56,15.20
2017,06,25,04,57,15.20
2017,06,25,04,58,15.20
2017,06,25,04,59,15.20
2017,06,25,05,00,15.20
2017,06,25,05,01,15.20
2017,06,25,05,02,15.20
2017,06,25,05,03,15.10
2017,06,25,05,04,15.10
2017,06,25,05,05,15.10
2017,06,25,05,06,15.10
2017,06,25,05,07,15.10
2017,06,25,05,08,15.10
2017,06,25,05,09,15.10
2017,06,25,05,10,15.00
2017,06,25,05,11,15.00
2017,06,25,05,12,15.00
2017,06,25,05,13,15.00
2017,06,25,05,14,15.00
2017,06,25,05,15,14.90
2017,06,25,05,16,14.90
2017,06,25,05,17,14.90
2017,06,25,05,18,15.00
2017,06,25,05,19,15.00
2017,06,25,05,20,15.00
2017,06,25,05,21,14.90
2017,06,25,05,22,14.90
2017,06,25,05,23,14.90
2017,06,25,05,24,14.90
2017,06,25,05,25,14.90
2017,06,25,05,26,14.90
2017,06,25,05,27,14.90
2017,06,25,05,28,14.90
2017,06,25,05,29,14.90
2017,06,25,05,30,14.90
2017,06,25,05,31,14.90
2017,06,25,05,32,14.90
2017,06,25,05,33,14.90
2017,06,25,05,34,14.90
2017,06,25,05,35,14.90
2017,06,25,05,36,14.90
2017,06,25,05,37,14.90
2017,06,25,05,38,14.90
2017,06,25,05,39,14.90
2017,06,25,05,40,14.90
2017,06,25,05,41,14.90
2017,06,25,05,42,14.90
2017,06,25,05,43,14.90
2017,06,25,05,44,14.90
2017,06,25,05,45,14.90
2017,06,25,05,46,15.00
2017,06,25,05,47,15.00
2017,06,25,05,48,15.10
2017,06,25,05,49,15.10
2017,06,25,05,50,15.10
2017,06,25,05,51,15.10
2017,06,25,05,52,15.10
2017,06,25,05,53,15.20
2017,06,25,05,54,15.20
2017,06,25,05,55,15.20
2017,06,25,05,56,15.30
2017,06,25,05,57,15.30
2017,06,25,05,58,15.30
2017,06,25,05,59,15.30
2017,06,25,06,00,15.30
2017,06,25,06,01,15.40
2017,06,25,06,02,15.40
2017,06,25,06,03,15.40
2017,06,25,06,04,15.40
2017,06,25,06,05,15.40
2017,06,25,06,06,15.50
2017,06,25,06,07,15.50
2017,06,25,06,08,15.50
2017,06,25,06,09,15.50
2017,06,25,06,10,15.50
2017,06,25,06,11,15.50
2017,06,25,06,12,15.50
2017,06,25,06,13,15.60
2017,06,25,06,14,15.60
2017,06,25,06,15,15.60
2017,06,25,06,16,15.60
2017,06,25,06,17,15.60
2017,06,25,06,18,15.60
2017,06,25,06,19,15.60
2017,06,25,06,20,15.70
2017,06,25,06,21,15.70
2017,06,25,06,22,15.70
2017,06,25,06,23,15.70
2017,06,25,06,24,15.70
2017,06,25,06,25,15.70
2017,06,25,06,26,15.80
2017,06,25,06,27,15.80
2017,06,25,06,28,15.80
2017,06,25,06,29,15.80
2017,06,25,06,30,15.80
2017,06,25,06,31,15.80
2017,06,25,06,32,15.80
2017,06,25,06,33,15.80
2017,06,25,06,34,15.80
2017,06,25,06,35,15.90
2017,06,25,06,36,15.90
2017,06,25,06,37,15.90
2017,06,25,06,38,16.00
2017,06,25,06,39,16.00
2017,06,25,06,40,16.00
2017,06,25,06,41,16.00
2017,06,25,06,42,16.10
2017,06,25,06,43,16.10
2017,06,25,06,44,16.10
2017,06,25,06,45,16.20
2017,06,25,06,46,16.20
2017,06,25,06,47,16.20
2017,06,25,06,48,16.30
2017,06,25,06,49,16.40
2017,06,25,06,50,16.40
2017,06,25,06,51,16.50
2017,06,25,06,52,16.60
2017,06,25,06,53,16.60
2017,06,25,06,54,16.70
2017,06,25,06,55,16.70
2017,06,25,06,56,16.70
2017,06,25,06,57,16.70
2017,06,25,06,58,16.70
2017,06,25,06,59,16.70
2017,06,25,07,00,16.70
2017,06,25,07,01,16.70
2017,06,25,07,02,16.60
2017,06,25,07,03,16.60
2017,06,25,07,04,16.60
2017,06,25,07,05,16.60
2017,06,25,07,06,16.60
2017,06,25,07,07,16.60
2017,06,25,07,08,16.60
2017,06,25,07,09,16.70
2017,06,25,07,10,16.70
2017,06,25,07,11,16.70
2017,06,25,07,12,16.80
2017,06,25,07,13,16.80
2017,06,25,07,14,16.80
2017,06,25,07,15,16.90
2017,06,25,07,16,17.00
2017,06,25,07,17,17.10
2017,06,25,07,18,17.20
2017,06,25,07,19,17.20
2017,06,25,07,20,17.30
2017,06,25,07,21,17.40
2017,06,25,07,22,17.40
2017,06,25,07,23,17.50
2017,06,25,07,24,17.60
2017,06,25,07,25,17.70
2017,06,25,07,26,17.70
2017,06,25,07,27,17.80
2017,06,25,07,28,17.80
2017,06,25,07,29,17.90
2017,06,25,07,30,17.90
2017,06,25,07,31,17.90
2017,06,25,07,32,18.00
2017,06,25,07,33,18.00
2017,06,25,07,34,18.10
2017,06,25,07,35,18.20
2017,06,25,07,36,18.20
2017,06,25,07,37,18.20
2017,06,25,07,38,18.30
2017,06,25,07,39,18.30
2017,06,25,07,40,18.30
2017,06,25,07,41,18.30
2017,06,25,07,42,18.40
2017,06,25,07,43,18.40
2017,06,25,07,44,18.40
2017,06,25,07,45,18.40
2017,06,25,07,46,18.40
2017,06,25,07,47,18.40
2017,06,25,07,48,18.40
2017,06,25,07,49,18.40
2017,06,25,07,50,18.50
2017,06,25,07,51,18.50
2017,06,25,07,52,18.50
2017,06,25,07,53,18.50
2017,06,25,07,54,18.50
2017,06,25,07,55,18.50
2017,06,25,07,56,18.60
2017,06,25,07,57,18.60
2017,06,25,07,58,18.70
2017,06,25,07,59,18.80
2017,06,25,08,00,18.90
2017,06,25,08,01,19.10
2017,06,25,08,02,19.20
2017,06,25,08,03,19.30
2017,06,25,08,04,19.50
2017,06,25,08,05,19.70
2017,06,25,08,06,19.80
2017,06,25,08,07,19.90
2017,06,25,08,08,20.00
2017,06,25,08,09,20.10
2017,06,25,08,10,20.20
2017,06,25,08,11,20.30
2017,06,25,08,12,20.30
2017,06,25,08,13,20.40
2017,06,25,08,14,20.50
2017,06,25,08,15,20.50
2017,06,25,08,16,20.60
2017,06,25,08,17,20.60
2017,06,25,08,18,20.70
2017,06,25,08,19,20.80
2017,06,25,08,20,20.80
2017,06,25,08,21,20.90
2017,06,25,08,22,21.00
2017,06,25,08,23,21.00
2017,06,25,08,24,21.00
2017,06,25,08,25,21.00
2017,06,25,08,26,21.00
2017,06,25,08,27,21.00
2017,06,25,08,28,21.10
2017,06,25,08,29,21.10
2017,06,25,08,30,21.10
2017,06,25,08,31,21.20
2017,06,25,08,32,21.20
2017,06,25,08,33,21.20
2017,06,25,08,34,21.20
2017,06,25,08,35,21.20
2017,06,25,08,36,21.20
2017,06,25,08,37,21.20
2017,06,25,08,38,21.20
2017,06,25,08,39,21.10
2017,06,25,08,40,21.10
2017,06,25,08,41,21.00
2017,06,25,08,42,20.90
2017,06,25,08,43,20.90
2017,06,25,08,44,20.90
2017,06,25,08,45,20.90
2017,06,25,08,46,20.80
2017,06,25,08,47,20.80
2017,06,25,08,48,20.80
2017,06,25,08,49,20.80
2017,06,25,08,50,20.80
2017,06,25,08,51,20.80
2017,06,25,08,52,20.80
2017,06,25,08,53,20.90
2017,06,25,08,54,20.80
2017,06,25,08,55,20.80
2017,06,25,08,56,20.80
2017,06,25,08,57,20.70
2017,06,25,08,58,20.70
2017,06,25,08,59,20.70
2017,06,25,09,00,20.60
2017,06,25,09,01,20.60
2017,06,25,09,02,20.60
2017,06,25,09,03,20.60
2017,06,25,09,04,20.50
2017,06,25,09,05,20.50
2017,06,25,09,06,20.50
2017,06,25,09,07,20.40
2017,06,25,09,08,20.40
2017,06,25,09,09,20.40
2017,06,25,09,10,20.40
2017,06,25,09,11,20.40
2017,06,25,09,12,20.40
2017,06,25,09,13,20.50
2017,06,25,09,14,20.50
2017,06,25,09,15,20.60
2017,06,25,09,16,20.70
2017,06,25,09,17,20.70
2017,06,25,09,18,20.80
2017,06,25,09,19,20.90
2017,06,25,09,20,20.90
2017,06,25,09,21,20.90
2017,06,25,09,22,20.90
2017,06,25,09,23,20.90
2017,06,25,09,24,21.00
2017,06,25,09,25,21.00
2017,06,25,09,26,21.00
2017,06,25,09,27,21.00
2017,06,25,09,28,21.10
2017,06,25,09,29,21.10
2017,06,25,09,30,21.10
2017,06,25,09,31,21.10
2017,06,25,09,32,21.20
2017,06,25,09,33,21.20
2017,06,25,09,34,21.30
2017,06,25,09,35,21.30
2017,06,25,09,36,21.40
2017,06,25,09,37,21.40
2017,06,25,09,38,21.50
2017,06,25,09,39,21.50
2017,06,25,09,40,21.50
2017,06,25,09,41,21.60
2017,06,25,09,42,21.70
2017,06,25,09,43,21.80
2017,06,25,09,44,21.90
2017,06,25,09,45,22.10
2017,06,25,09,46,22.20
2017,06,25,09,47,22.30
2017,06,25,09,48,22.40
2017,06,25,09,49,22.40
2017,06,25,09,50,22.50
2017,06,25,09,51,22.50
2017,06,25,09,52,22.60
2017,06,25,09,53,22.60
2017,06,25,09,54,22.60
2017,06,25,09,55,22.60
2017,06,25,09,56,22.60
2017,06,25,09,57,22.60
2017,06,25,09,58,22.60
2017,06,25,09,59,22.60
2017,06,25,10,00,22.60
2017,06,25,10,01,22.60
2017,06,25,10,02,22.70
2017,06,25,10,03,22.70
2017,06,25,10,04,22.70
2017,06,25,10,05,22.70
2017,06,25,10,06,22.70
2017,06,25,10,07,22.70
2017,06,25,10,08,22.70
2017,06,25,10,09,22.60
2017,06,25,10,10,22.60
2017,06,25,10,11,22.50
2017,06,25,10,12,22.50
2017,06,25,10,13,22.40
2017,06,25,10,14,22.40
2017,06,25,10,15,22.30
2017,06,25,10,16,22.20
2017,06,25,10,17,22.10
2017,06,25,10,18,22.10
2017,06,25,10,19,22.10
2017,06,25,10,20,22.10
2017,06,25,10,21,22.10
2017,06,25,10,22,22.10
2017,06,25,10,23,22.10
2017,06,25,10,24,22.00
2017,06,25,10,25,21.90
2017,06,25,10,26,21.90
2017,06,25,10,27,21.90
2017,06,25,10,28,21.90
2017,06,25,10,29,21.80
2017,06,25,10,30,21.80
2017,06,25,10,31,21.70
2017,06,25,10,32,21.80
2017,06,25,10,33,21.80
2017,06,25,10,34,21.80
2017,06,25,10,35,21.90
2017,06,25,10,36,21.90
2017,06,25,10,37,22.00
2017,06,25,10,38,21.90
2017,06,25,10,39,21.90
2017,06,25,10,40,22.00
2017,06,25,10,41,22.00
2017,06,25,10,42,22.10
2017,06,25,10,43,22.20
2017,06,25,10,44,22.30
2017,06,25,10,45,22.40
2017,06,25,10,46,22.40
2017,06,25,10,47,22.50
2017,06,25,10,48,22.60
2017,06,25,10,49,22.60
2017,06,25,10,50,22.60
2017,06,25,10,51,22.50
2017,06,25,10,52,22.50
2017,06,25,10,53,22.50
2017,06,25,10,54,22.60
2017,06,25,10,55,22.60
2017,06,25,10,56,22.70
2017,06,25,10,57,22.70
2017,06,25,10,58,22.70
2017,06,25,10,59,22.70
2017,06,25,11,00,22.70
2017,06,25,11,01,22.70
2017,06,25,11,02,22.60
2017,06,25,11,03,22.60
2017,06,25,11,04,22.60
2017,06,25,11,05,22.60
2017,06,25,11,06,22.70
2017,06,25,11,07,22.70
2017,06,25,11,08,22.60
2017,06,25,11,09,22.50
2017,06,25,11,10,22.50
2017,06,25,11,11,22.50
2017,06,25,11,12,22.40
2017,06,25,11,13,22.50
2017,06,25,11,14,22.50
2017,06,25,11,15,22.50
2017,06,25,11,16,22.60
2017,06,25,11,17,22.60
2017,06,25,11,18,22.50
2017,06,25,11,19,22.50
2017,06,25,11,20,22.40
2017,06,25,11,21,22.40
2017,06,25,11,22,22.50
2017,06,25,11,23,22.50
2017,06,25,11,24,22.50
2017,06,25,11,25,22.40
2017,06,25,11,26,22.40
2017,06,25,11,27,22.40
2017,06,25,11,28,22.50
2017,06,25,11,29,22.50
2017,06,25,11,30,22.60
2017,06,25,11,31,22.70
2017,06,25,11,32,22.70
2017,06,25,11,33,22.80
2017,06,25,11,34,22.90
2017,06,25,11,35,23.00
2017,06,25,11,36,23.20
2017,06,25,11,37,23.20
2017,06,25,11,38,23.30
2017,06,25,11,39,23.20
2017,06,25,11,40,23.20
2017,06,25,11,41,23.30
2017,06,25,11,42,23.30
2017,06,25,11,43,23.40
2017,06,25,11,44,23.40
2017,06,25,11,45,23.40
2017,06,25,11,46,23.50
2017,06,25,11,47,23.50
2017,06,25,11,48,23.60
2017,06,25,11,49,23.70
2017,06,25,11,50,23.80
2017,06,25,11,51,24.00
2017,06,25,11,52,24.20
2017,06,25,11,53,24.30
2017,06,25,11,54,24.40
2017,06,25,11,55,24.40
2017,06,25,11,56,24.40
2017,06,25,11,57,24.40
2017,06,25,11,58,24.40
2017,06,25,11,59,24.50
2017,06,25,12,00,24.60
2017,06,25,12,01,24.60
2017,06,25,12,02,24.40
2017,06,25,12,03,24.30
2017,06,25,12,04,24.30
2017,06,25,12,05,24.20
2017,06,25,12,06,24.10
2017,06,25,12,07,24.10
2017,06,25,12,08,24.20
2017,06,25,12,09,24.20
2017,06,25,12,10,24.20
2017,06,25,12,11,24.30
2017,06,25,12,12,24.40
2017,06,25,12,13,24.50
2017,06,25,12,14,24.70
2017,06,25,12,15,24.60
2017,06,25,12,16,24.50
2017,06,25,12,17,24.40
2017,06,25,12,18,24.20
2017,06,25,12,19,24.20
2017,06,25,12,20,24.20
2017,06,25,12,21,24.20
2017,06,25,12,22,24.30
2017,06,25,12,23,24.40
2017,06,25,12,24,24.40
2017,06,25,12,25,24.30
2017,06,25,12,26,24.30
2017,06,25,12,27,24.40
2017,06,25,12,28,24.40
2017,06,25,12,29,24.50
2017,06,25,12,30,24.60
2017,06,25,12,31,24.60
2017,06,25,12,32,24.60
2017,06,25,12,33,24.60
2017,06,25,12,34,24.60
2017,06,25,12,35,24.60
2017,06,25,12,36,24.60
2017,06,25,12,37,24.70
2017,06,25,12,38,24.80
2017,06,25,12,39,24.90
2017,06,25,12,40,25.00
2017,06,25,12,41,25.10
2017,06,25,12,42,25.10
2017,06,25,12,43,25.00
2017,06,25,12,44,25.00
2017,06,25,12,45,25.10
2017,06,25,12,46,25.20
2017,06,25,12,47,25.30
2017,06,25,12,48,25.30
2017,06,25,12,49,25.30
2017,06,25,12,50,25.40
2017,06,25,12,51,25.50
2017,06,25,12,52,25.60
2017,06,25,12,53,25.60
2017,06,25,12,54,25.70
2017,06,25,12,55,25.70
2017,06,25,12,56,25.80
2017,06,25,12,57,25.80
2017,06,25,12,58,25.80
2017,06,25,12,59,25.70
2017,06,25,13,00,25.60
2017,06,25,13,01,25.50
2017,06,25,13,02,25.30
2017,06,25,13,03,25.20
2017,06,25,13,04,25.10
2017,06,25,13,05,25.00
2017,06,25,13,06,24.90
2017,06,25,13,07,24.90
2017,06,25,13,08,24.80
2017,06,25,13,09,24.80
2017,06,25,13,10,24.90
2017,06,25,13,11,24.90
2017,06,25,13,12,24.90
2017,06,25,13,13,25.00
2017,06,25,13,14,25.00
2017,06,25,13,15,25.10
2017,06,25,13,16,25.20
2017,06,25,13,17,25.20
2017,06,25,13,18,25.20
2017,06,25,13,19,25.20
2017,06,25,13,20,25.20
2017,06,25,13,21,25.20
2017,06,25,13,22,25.40
2017,06,25,13,23,25.40
2017,06,25,13,24,25.40
2017,06,25,13,25,25.40
2017,06,25,13,26,25.50
2017,06,25,13,27,25.40
2017,06,25,13,28,25.50
2017,06,25,13,29,25.60
2017,06,25,13,30,25.70
2017,06,25,13,31,25.80
2017,06,25,13,32,25.90
2017,06,25,13,33,25.90
2017,06,25,13,34,26.00
2017,06,25,13,35,25.90
2017,06,25,13,36,25.80
2017,06,25,13,37,25.80
2017,06,25,13,38,25.70
2017,06,25,13,39,25.60
2017,06,25,13,40,25.60
2017,06,25,13,41,25.60
2017,06,25,13,42,25.50
2017,06,25,13,43,25.50
2017,06,25,13,44,25.40
2017,06,25,13,45,25.40
2017,06,25,13,46,25.50
2017,06,25,13,47,25.60
2017,06,25,13,48,25.70
2017,06,25,13,49,25.70
2017,06,25,13,50,25.70
2017,06,25,13,51,25.60
2017,06,25,13,52,25.50
2017,06,25,13,53,25.50
2017,06,25,13,54,25.50
2017,06,25,13,55,25.60
2017,06,25,13,56,25.60
2017,06,25,13,57,25.60
2017,06,25,13,58,25.60
2017,06,25,13,59,25.60
2017,06,25,14,00,25.70
2017,06,25,14,01,25.70
2017,06,25,14,02,25.80
2017,06,25,14,03,25.90
2017,06,25,14,04,26.00
2017,06,25,14,05,26.10
2017,06,25,14,06,26.10
2017,06,25,14,07,26.20
2017,06,25,14,08,26.30
2017,06,25,14,09,26.20
2017,06,25,14,10,26.10
2017,06,25,14,11,26.10
2017,06,25,14,12,26.00
2017,06,25,14,13,26.00
2017,06,25,14,14,26.00
2017,06,25,14,15,26.00
2017,06,25,14,16,26.10
2017,06,25,14,17,26.10
2017,06,25,14,18,26.20
2017,06,25,14,19,26.10
2017,06,25,14,20,26.10
2017,06,25,14,21,26.00
2017,06,25,14,22,26.00
2017,06,25,14,23,26.00
2017,06,25,14,24,26.00
2017,06,25,14,25,26.00
2017,06,25,14,26,26.00
2017,06,25,14,27,26.10
2017,06,25,14,28,26.10
2017,06,25,14,29,26.20
2017,06,25,14,30,26.30
2017,06,25,14,31,26.40
2017,06,25,14,32,26.60
2017,06,25,14,33,26.70
2017,06,25,14,34,26.80
2017,06,25,14,35,26.90
2017,06,25,14,36,26.90
2017,06,25,14,37,27.00
2017,06,25,14,38,27.10
2017,06,25,14,39,27.00
2017,06,25,14,40,27.00
2017,06,25,14,41,26.90
2017,06,25,14,42,26.90
2017,06,25,14,43,26.90
2017,06,25,14,44,26.90
2017,06,25,14,45,27.00
2017,06,25,14,46,27.00
2017,06,25,14,47,27.00
2017,06,25,14,48,27.10
2017,06,25,14,49,27.00
2017,06,25,14,50,26.90
2017,06,25,14,51,26.70
2017,06,25,14,52,26.60
2017,06,25,14,53,26.50
2017,06,25,14,54,26.40
2017,06,25,14,55,26.30
2017,06,25,14,56,26.10
2017,06,25,14,57,26.00
2017,06,25,14,58,25.90
2017,06,25,14,59,25.90
2017,06,25,15,00,25.90
2017,06,25,15,01,25.90
2017,06,25,15,02,25.90
2017,06,25,15,03,25.80
2017,06,25,15,04,25.80
2017,06,25,15,05,25.70
2017,06,25,15,06,25.70
2017,06,25,15,07,25.80
2017,06,25,15,08,25.80
2017,06,25,15,09,25.80
2017,06,25,15,10,25.80
2017,06,25,15,11,25.80
2017,06,25,15,12,25.80
2017,06,25,15,13,26.00
2017,06,25,15,14,26.10
2017,06,25,15,15,26.20
2017,06,25,15,16,26.30
2017,06,25,15,17,26.30
2017,06,25,15,18,26.20
2017,06,25,15,19,26.20
2017,06,25,15,20,26.20
2017,06,25,15,21,26.10
2017,06,25,15,22,26.10
2017,06,25,15,23,26.10
2017,06,25,15,24,26.00
2017,06,25,15,25,26.10
2017,06,25,15,26,26.10
2017,06,25,15,27,26.00
2017,06,25,15,28,26.00
2017,06,25,15,29,26.00
2017,06,25,15,30,26.00
2017,06,25,15,31,26.00
2017,06,25,15,32,26.10
2017,06,25,15,33,26.20
2017,06,25,15,34,26.20
2017,06,25,15,35,26.30
2017,06,25,15,36,26.40
2017,06,25,15,37,26.40
2017,06,25,15,38,26.50
2017,06,25,15,39,26.60
2017,06,25,15,40,26.70
2017,06,25,15,41,26.80
2017,06,25,15,42,26.90
2017,06,25,15,43,26.90
2017,06,25,15,44,26.80
2017,06,25,15,45,26.80
2017,06,25,15,46,26.70
2017,06,25,15,47,26.70
2017,06,25,15,48,26.80
2017,06,25,15,49,26.80
2017,06,25,15,50,26.80
2017,06,25,15,51,26.80
2017,06,25,15,52,26.80
2017,06,25,15,53,26.80
2017,06,25,15,54,26.80
2017,06,25,15,55,26.80
2017,06,25,15,56,26.80
2017,06,25,15,57,26.80
2017,06,25,15,58,26.80
2017,06,25,15,59,26.80
2017,06,25,16,00,26.70
2017,06,25,16,01,26.70
2017,06,25,16,02,26.70
2017,06,25,16,03,26.60
2017,06,25,16,04,26.60
2017,06,25,16,05,26.70
2017,06,25,16,06,26.70
2017,06,25,16,07,26.70
2017,06,25,16,08,26.70
2017,06,25,16,09,26.60
2017,06,25,16,10,26.50
2017,06,25,16,11,26.40
2017,06,25,16,12,26.40
2017,06,25,16,13,26.40
2017,06,25,16,14,26.50
2017,06,25,16,15,26.50
2017,06,25,16,16,26.50
2017,06,25,16,17,26.50
2017,06,25,16,18,26.40
2017,06,25,16,19,26.40
2017,06,25,16,20,26.40
2017,06,25,16,21,26.40
2017,06,25,16,22,26.50
2017,06,25,16,23,26.50
2017,06,25,16,24,26.50
2017,06,25,16,25,26.50
2017,06,25,16,26,26.70
2017,06,25,16,27,26.80
2017,06,25,16,28,27.00
2017,06,25,16,29,27.30
2017,06,25,16,30,27.40
2017,06,25,16,31,27.60
2017,06,25,16,32,27.70
2017,06,25,16,33,27.80
2017,06,25,16,34,27.80
2017,06,25,16,35,27.80
2017,06,25,16,36,27.80
2017,06,25,16,37,27.80
2017,06,25,16,38,27.80
2017,06,25,16,39,27.90
2017,06,25,16,40,28.00
2017,06,25,16,41,28.10
2017,06,25,16,42,28.20
2017,06,25,16,43,28.30
2017,06,25,16,44,28.30
2017,06,25,16,45,28.30
2017,06,25,16,46,28.30
2017,06,25,16,47,28.30
2017,06,25,16,48,28.30
2017,06,25,16,49,28.40
2017,06,25,16,50,28.40
2017,06,25,16,51,28.50
2017,06,25,16,52,28.60
2017,06,25,16,53,28.60
2017,06,25,16,54,28.60
2017,06,25,16,55,28.60
2017,06,25,16,56,28.60
2017,06,25,16,57,28.60
2017,06,25,16,58,28.60
2017,06,25,16,59,28.70
2017,06,25,17,00,28.80
2017,06,25,17,01,28.90
2017,06,25,17,02,29.10
2017,06,25,17,03,29.20
2017,06,25,17,04,29.30
2017,06,25,17,05,29.30
2017,06,25,17,06,29.40
2017,06,25,17,07,29.40
2017,06,25,17,08,29.40
2017,06,25,17,09,29.40
2017,06,25,17,10,29.30
2017,06,25,17,11,29.30
2017,06,25,17,12,29.20
2017,06,25,17,13,29.00
2017,06,25,17,14,29.00
2017,06,25,17,15,28.90
2017,06,25,17,16,28.80
2017,06,25,17,17,28.70
2017,06,25,17,18,28.70
2017,06,25,17,19,28.60